Temp
14 14 13 12 10 9 8 8 7 8 8 7 8 9 8 7 8 8 9 9 9 9
11 13 12 12 10 9 8 8 7 7 6 6 7 7 7 6 7 7 7 7 7 7
10 13 12 11 9 8 8 7 6 5 4 5 5 6 5 5 5 5 5 5 7 6
10 11 11 9 8 8 7 6 5 4 3 3 3 3 3 4 4 4 4 5 5 5
8 9 9 8 7 6 5 5 3 2 2 1 1 2 3 3 2 3 4 3 4 4
7 7 7 6 5 4 4 3 2 2 1 1 2 3 2 1 1 2 2 2 2 3
5 5 5 4 3 3 3 2 2 1 1 1 1 1 1 1 2 1 2 2 2 2
4 3 3 3 3 3 2 2 2 1 1 -0 -0 -0 -0 0 0 2 1 1 1 1
3 3 3 3 3 2 2 2 1 1 0 0 0 -0 -0 -0 -0 -0 0 0 0 0
3 3 3 3 3 2 1 0 0 0 -0 -0 -0 -0 -0 -0 0 0 -0 0 -0 -2
3 2 1 0 -0 -0 -0 -1 -1 -0 -0 -0 -1 -1 -1 0 -0 -1 -0 -1 -1 -2
1 0 -0 -1 -1 -1 -1 -1 -1 -1 -1 -1 -2 -1 -2 -2 -1 -1 -1 -2 -1 -2
1 0 -1 -1 -1 -1 -1 -1 -1 -1 -1 -1 -2 -1 -2 -2 -2 -3 -3 -2 -3 -3
1 -0 -0 -1 -1 -1 -1 -1 -1 -1 -1 -1 -2 -3 -2 -1 -2 -2 -3 -3 -4 -4
Height
685 673 674 678 679 683 685 691 696 699 704 714 723 730 738 748 752 759 766 774 777 776
676 667 659 663 667 672 676 681 688 690 695 702 711 719 730 739 742 755 763 766 771 778
666 657 651 652 656 662 669 674 680 684 690 698 709 711 724 737 746 752 759 762 767 778
658 648 642 639 648 652 660 665 674 679 688 696 709 710 718 733 743 744 757 765 761 778
654 646 637 635 640 646 652 660 668 675 683 692 703 708 715 728 739 737 746 758 759 778
648 645 639 636 637 642 648 656 665 672 679 685 696 709 707 718 731 734 745 756 760 774
645 642 639 639 640 643 650 656 662 669 676 683 692 704 711 720 720 731 749 755 764 771
641 643 640 640 642 645 650 655 661 668 676 683 691 701 709 714 722 733 746 755 761 769
641 644 642 645 647 650 655 659 663 671 676 684 692 698 707 717 728 738 745 754 762 768
640 644 645 647 650 652 654 661 665 671 679 686 693 702 707 718 731 737 745 753 755 764
641 644 647 648 651 651 652 661 665 675 680 687 696 703 714 720 731 738 748 751 755 760
643 643 646 647 650 655 659 665 675 679 681 691 703 706 711 722 734 743 746 751 757 762
644 645 650 651 654 657 662 668 674 681 692 698 705 711 718 724 733 744 751 755 761 763
642 645 649 653 655 658 667 672 681 689 697 703 709 715 722 728 734 740 749 755 759 763
Wind_Speed
41 42 38 36 34 35 38 39 39 42 42 40 45 43 39 37 33 30 26 20 17 18
41 43 38 36 36 36 36 36 40 44 44 44 49 46 41 36 32 27 26 24 18 14
41 40 39 34 34 33 34 34 36 38 39 39 42 45 36 34 32 29 25 27 24 21
38 32 33 34 35 36 33 36 38 37 36 36 35 37 34 30 30 32 22 19 25 20
32 30 29 28 30 32 36 37 39 38 38 38 36 35 40 36 31 34 32 26 24 18
27 24 18 22 31 35 37 37 39 41 42 44 44 39 43 39 36 31 27 25 24 22
19 17 17 21 26 31 34 37 38 40 42 46 46 44 42 42 36 32 29 28 28 26
11 12 16 23 28 31 34 38 40 39 38 40 42 40 39 34 35 35 31 25 26 26
13 14 16 18 20 24 26 28 30 31 35 36 33 37 38 34 29 30 27 25 23 18
13 15 14 14 16 20 23 25 28 30 32 29 28 38 37 32 24 24 25 24 23 20
16 15 14 19 23 26 29 29 29 32 32 32 33 33 31 28 29 27 25 26 25 24
19 18 20 20 23 27 31 31 30 30 31 31 34 34 35 28 26 27 25 23 25 26
20 22 21 25 26 26 29 27 30 28 26 27 30 28 30 27 26 21 19 21 20 23
21 22 22 26 28 30 27 30 28 28 27 26 28 29 30 24 25 24 22 20 18 19
Wind_Direction
278 230 221 216 206 204 199 200 194 188 185 182 185 184 183 180 176 177 173 168 165 156
311 244 218 212 206 204 202 198 192 186 180 178 184 182 178 175 178 178 181 170 169 159
310 259 220 205 197 198 198 193 186 179 175 173 177 176 169 173 176 177 174 173 168 173
313 255 215 197 197 196 190 183 175 168 165 161 161 158 155 158 160 153 145 149 149 161
304 264 211 197 189 182 176 169 164 159 152 151 150 151 159 156 160 156 153 161 152 174
289 264 221 189 178 172 162 159 158 157 156 155 160 166 164 161 158 149 156 162 158 175
277 235 193 173 164 160 160 159 160 162 161 161 163 165 163 162 155 162 166 166 174 175
251 218 184 169 168 166 166 167 166 163 162 159 160 163 159 156 160 167 171 172 174 183
204 201 184 178 172 170 168 167 162 160 155 156 160 161 157 155 157 162 160 164 170 173
191 185 186 177 168 156 148 147 144 147 149 146 151 163 158 154 158 158 164 170 161 167
188 186 173 162 155 144 140 136 138 142 142 144 150 156 156 152 162 163 167 166 170 167
199 191 173 158 146 146 140 138 142 143 140 146 151 160 157 162 163 166 163 167 171 177
193 184 171 159 152 145 141 133 142 144 157 159 156 165 164 161 154 149 151 159 166 169
180 176 172 158 154 145 143 142 144 148 160 164 166 163 164 157 156 154 155 156 157 162